Date String (YYYY-MM-DD hh:mm:ss) UTC,Instrument flags,Ambient pressure (hPa),Sample flow (lpm),Bypass flow (lpm),Sample temperature (°C),Ambient temperature (°C),ASC tube jacket temperature (°C),LED temperature (°C),Box temperature (°C),Sample RH (%),Span deviation,Mass concentration (μg/m³),Mass concentration (μg/m³),Mass concentration (μg/m³)
DateTimeUTC,F1_M11,P_M11,Q1_M11,Q2_M11,T1_M11,T2_M11,T3_M11,T4_M11,T5_M11,U1_M11,ZSPAN_M11,X0_M11,X2_M11,X1_M11
2022-04-30 21:00:00,,0824.0,5.01,0.00,25.7,25.2,00.0,34.5,27.5,10.1,0000.0,0010.94,0004.85,0004.05
2022-04-30 21:01:00,,0824.0,4.99,0.00,25.7,25.2,00.0,34.5,27.5,10.0,0000.0,0010.67,0004.84,0004.06
2022-04-30 21:02:00,,0823.9,4.99,0.00,25.7,25.2,00.0,34.5,27.6,10.4,0000.0,0011.39,0004.82,0004.07
2022-04-30 21:03:00,,0824.0,5.00,0.00,25.7,25.2,00.0,34.5,27.6,10.3,0000.0,0011.58,0004.80,0004.07
2022-04-30 21:04:00,,0824.0,4.99,0.00,25.7,25.2,00.0,34.6,27.6,10.2,0000.0,0011.25,0004.79,0004.07
2022-04-30 21:05:00,,0824.0,5.00,0.00,25.7,25.2,00.0,34.6,27.6,10.0,0000.0,0010.68,0004.83,0004.08
2022-04-30 21:06:00,,0824.0,5.00,0.00,25.7,25.2,00.0,34.6,27.6,09.8,0000.0,0010.05,0004.94,0004.12
2022-04-30 21:07:00,,0824.0,4.99,0.00,25.8,25.2,00.0,34.6,27.6,09.8,0000.0,0010.05,0005.01,0004.17
2022-04-30 21:08:00,,0824.0,5.02,0.00,25.8,25.2,00.0,34.6,27.6,10.0,0000.0,0009.99,0005.06,0004.22
2022-04-30 21:09:00,,0824.0,4.99,0.00,25.8,25.3,00.0,34.6,27.6,09.9,0000.0,0010.11,0005.12,0004.25
2022-04-30 21:10:00,,0823.9,4.99,0.00,25.8,25.3,00.0,34.6,27.7,09.9,0000.0,0010.44,0005.15,0004.28
2022-04-30 21:11:00,,0823.9,5.01,0.00,25.8,25.3,00.0,34.6,27.7,10.1,0000.0,0010.81,0005.14,0004.28
2022-04-30 21:12:00,,0823.9,4.99,0.00,25.8,25.3,00.0,34.6,27.7,10.0,0000.0,0011.15,0005.11,0004.24
2022-04-30 21:13:00,,0823.9,5.00,0.00,25.8,25.3,00.0,34.7,27.7,09.9,0000.0,0010.90,0005.11,0004.23
2022-04-30 21:14:00,,0823.9,5.01,0.00,25.8,25.3,00.0,34.7,27.7,09.9,0000.0,0011.26,0005.12,0004.21
2022-04-30 21:15:00,,0823.8,5.00,0.00,25.9,25.3,00.0,34.7,27.7,10.3,0000.0,0011.70,0005.14,0004.18
2022-04-30 21:16:00,,0823.8,5.00,0.00,25.9,25.4,00.0,34.7,27.7,10.1,0000.0,0012.83,0005.13,0004.13
2022-04-30 21:17:00,,0823.8,4.99,0.00,25.9,25.4,00.0,34.7,27.7,10.1,0000.0,0012.99,0005.11,0004.08
2022-04-30 21:18:00,,0823.9,5.00,0.00,25.9,25.4,00.0,34.7,27.8,09.9,0000.0,0013.75,0005.08,0004.03
2022-04-30 21:19:00,,0823.9,5.00,0.00,25.9,25.4,00.0,34.7,27.8,09.7,0000.0,0014.52,0005.06,0004.00
2022-04-30 21:20:00,,0823.8,4.99,0.00,25.9,25.4,00.0,34.8,27.8,09.8,0000.0,0015.72,0005.01,0004.01
2022-04-30 21:21:00,,0823.8,4.99,0.00,25.9,25.5,00.0,34.8,27.8,09.8,0000.0,0015.40,0004.99,0004.00
2022-04-30 21:22:00,,0823.9,5.01,0.00,26.0,25.4,00.0,34.8,27.8,09.8,0000.0,0015.18,0005.03,0004.01
2022-04-30 21:23:00,,0823.8,4.99,0.00,26.0,25.4,00.0,34.8,27.8,09.7,0000.0,0015.33,0005.06,0004.03
2022-04-30 21:24:00,,0823.8,5.01,0.00,26.0,25.4,00.0,34.8,27.8,09.7,0000.0,0015.14,0005.11,0004.05
2022-04-30 21:25:00,,0823.8,5.02,0.00,26.0,25.5,00.0,34.8,27.9,09.9,0000.0,0014.64,0005.14,0004.07
2022-04-30 21:26:00,,0823.9,5.00,0.00,26.0,25.5,00.0,34.8,27.9,09.8,0000.0,0015.84,0005.15,0004.11
2022-04-30 21:27:00,,0823.9,4.99,0.00,26.0,25.5,00.0,34.8,27.9,09.9,0000.0,0015.16,0005.15,0004.14
2022-04-30 21:28:00,,0823.8,5.01,0.00,26.0,25.5,00.0,34.9,27.9,09.7,0000.0,0015.48,0005.15,0004.16
2022-04-30 21:29:00,,0823.8,5.00,0.00,26.0,25.5,00.0,34.9,27.9,09.7,0000.0,0015.07,0005.15,0004.18
2022-04-30 21:30:00,,0823.8,4.99,0.00,26.0,25.5,00.0,34.9,27.9,09.7,0000.0,0014.22,0005.11,0004.18
2022-04-30 21:31:00,,0823.8,5.00,0.00,26.0,25.5,00.0,34.9,27.9,09.6,0000.0,0013.11,0005.18,0004.21
2022-04-30 21:32:00,,0823.8,5.01,0.00,26.0,25.5,00.0,34.9,27.9,09.8,0000.0,0013.27,0005.17,0004.25
2022-04-30 21:33:00,,0823.7,4.99,0.00,26.1,25.5,00.0,34.9,27.9,09.8,0000.0,0013.59,0005.20,0004.28
2022-04-30 21:34:00,,0823.7,5.01,0.00,26.1,25.5,00.0,34.9,27.9,09.7,0000.0,0013.38,0005.28,0004.31
2022-04-30 21:35:00,,0823.7,4.99,0.00,26.1,25.5,00.0,34.9,28.0,09.9,0000.0,0013.75,0005.32,0004.33
2022-04-30 21:36:00,,0823.7,5.00,0.00,26.1,25.5,00.0,34.9,28.0,09.8,0000.0,0013.84,0005.30,0004.33
2022-04-30 21:37:00,,0823.7,4.98,0.00,26.1,25.5,00.0,34.9,28.0,09.8,0000.0,0013.06,0005.29,0004.33
2022-04-30 21:38:00,,0823.7,5.01,0.00,26.1,25.5,00.0,35.0,27.9,09.6,0000.0,0012.89,0005.29,0004.34
2022-04-30 21:39:00,,0823.8,4.99,0.00,26.1,25.5,00.0,35.0,27.9,09.6,0000.0,0012.56,0005.27,0004.35
2022-04-30 21:40:00,,0823.6,5.01,0.00,26.1,25.6,00.0,35.0,28.0,09.5,0000.0,0012.96,0005.30,0004.36
2022-04-30 21:41:00,,0823.7,4.99,0.00,26.2,25.6,00.0,35.0,28.0,09.7,0000.0,0014.37,0005.35,0004.37
2022-04-30 21:42:00,,0823.7,5.00,0.00,26.2,25.6,00.0,35.0,28.0,09.7,0000.0,0014.51,0005.28,0004.33
2022-04-30 21:43:00,,0823.7,5.00,0.00,26.2,25.6,00.0,35.0,28.0,09.8,0000.0,0014.35,0005.29,0004.30
2022-04-30 21:44:00,,0823.7,4.99,0.00,26.2,25.7,00.0,35.0,28.0,09.8,0000.0,0014.01,0005.26,0004.28
2022-04-30 21:45:00,,0823.7,5.00,0.00,26.2,25.7,00.0,35.0,28.1,09.7,0000.0,0013.68,0005.19,0004.25
2022-04-30 21:46:00,,0823.7,5.01,0.00,26.2,25.7,00.0,35.0,28.1,09.7,0000.0,0013.34,0005.15,0004.23
2022-04-30 21:47:00,,0823.7,5.00,0.00,26.2,25.7,00.0,35.1,28.1,09.5,0000.0,0013.47,0005.17,0004.24
2022-04-30 21:48:00,,0823.7,5.01,0.00,26.2,25.6,00.0,35.1,28.1,09.5,0000.0,0013.70,0005.20,0004.25
2022-04-30 21:49:00,,0823.7,4.99,0.00,26.2,25.6,00.0,35.1,28.1,09.6,0000.0,0014.26,0005.20,0004.23
2022-04-30 21:50:00,,0823.7,4.99,0.00,26.2,25.6,00.0,35.1,28.1,09.6,0000.0,0014.96,0005.17,0004.21
2022-04-30 21:51:00,,0823.7,5.01,0.00,26.2,25.6,00.0,35.1,28.1,09.8,0000.0,0015.07,0005.15,0004.18
2022-04-30 21:52:00,,0823.7,5.00,0.00,26.2,25.7,00.0,35.1,28.1,09.8,0000.0,0015.38,0005.13,0004.15
2022-04-30 21:53:00,,0823.6,5.00,0.00,26.3,25.7,00.0,35.1,28.1,09.8,0000.0,0015.28,0005.15,0004.14
2022-04-30 21:54:00,,0823.6,4.99,0.00,26.3,25.7,00.0,35.1,28.1,09.6,0000.0,0015.21,0005.17,0004.15
2022-04-30 21:55:00,,0823.6,5.00,0.00,26.3,25.7,00.0,35.1,28.1,09.5,0000.0,0015.14,0005.18,0004.17
2022-04-30 21:56:00,,0823.7,5.01,0.00,26.3,25.8,00.0,35.1,28.2,09.7,0000.0,0015.14,0005.17,0004.19
2022-04-30 21:57:00,,0823.7,4.99,0.00,26.3,25.8,00.0,35.2,28.2,09.5,0000.0,0014.92,0005.15,0004.20
2022-04-30 21:58:00,,0823.7,4.99,0.00,26.3,25.8,00.0,35.2,28.2,09.4,0000.0,0015.19,0005.17,0004.20
2022-04-30 21:59:00,,0823.6,5.01,0.00,26.4,25.8,00.0,35.2,28.2,09.5,0000.0,0015.06,0005.15,0004.20
